DW5775 Weather Reports


time (UTC)temp
F
wind
direction
speed
knots
gust
knots
rain 1hr
in
rain 24hr
in
rain mn
in
humidity
%
barometer
mb
20260503193059 65 188 2.6 7.8 0.00 0.00 0.00 36 1009.4
20260503191556 65 4 2.6 10.4 0.00 0.00 0.00 37 1009.5
20260503190052 64 319 3.5 10.4 0.00 0.00 0.00 36 1009.8
20260503184605 62 273 2.6 5.2 0.00 0.00 0.00 39 1010.0
20260503183051 61 108 1.7 7.8 0.00 0.00 0.00 39 1010.3
20260503181548 62 285 2.6 13.0 0.00 0.00 0.00 40 1010.6
20260503180041 61 127 1.7 10.4 0.00 0.00 0.00 45 1010.7
20260503174538 60 181 2.6 7.8 0.00 0.00 0.00 42 1010.9
20260503173037 61 309 1.7 11.3 0.00 0.00 0.00 43 1011.0
20260503171547 59 327 2.6 9.6 0.00 0.00 0.00 43 1011.5
20260503081507 32 229 0.0 0.0 0.00 0.00 0.00 84 1014.5
20260503071505 32 229 0.0 0.0 0.00 0.00 0.00 85 1014.6
20260503054559 33 229 0.0 0.0 0.00 0.00 0.00 81 1015.1
20260503053049 34 229 0.0 0.0 0.00 0.00 0.00 80 1015.2
20260503051547 34 229 0.0 0.0 0.00 0.00 0.00 80 1015.2
20260503050048 34 229 0.0 0.0 0.00 0.00 0.00 79 1015.3
20260503044551 35 229 0.0 0.0 0.00 0.00 0.00 79 1015.4
20260503043047 34 229 0.0 0.0 0.00 0.00 0.00 81 1015.3
20260503041540 34 229 0.0 0.0 0.00 0.00 0.00 81 1015.3
20260503040040 33 229 0.0 0.0 0.00 0.00 0.00 82 1015.4
20260503034538 33 229 0.0 0.0 0.00 0.00 0.00 80 1015.5
20260503033037 34 229 0.0 0.0 0.00 0.00 0.00 79 1015.5
20260503031536 34 229 0.0 0.0 0.00 0.00 0.00 78 1015.6
20260503030035 34 229 0.0 0.0 0.00 0.00 0.00 77 1015.6
20260503024535 35 229 0.0 0.0 0.00 0.00 0.00 77 1015.7
20260503023035 35 229 0.0 0.0 0.00 0.00 0.00 75 1015.8
20260503021534 35 229 0.0 0.0 0.00 0.00 0.00 74 1015.9
20260503020035 36 229 0.0 0.0 0.00 0.00 0.00 72 1015.7
20260503014533 37 229 0.0 0.0 0.00 0.00 0.00 70 1015.8
20260503013036 38 229 0.0 0.0 0.00 0.00 0.00 68 1015.6
20260503011540 39 229 0.0 0.0 0.00 0.00 0.00 66 1015.6
20260503010037 41 229 0.0 0.0 0.00 0.00 0.00 63 1015.6
20260503004531 42 229 0.0 0.0 0.00 0.00 0.00 60 1015.5
20260503003031 43 229 0.0 0.0 0.00 0.00 0.00 54 1015.4
20260503001531 44 229 0.0 0.9 0.00 0.00 0.00 54 1015.3
20260503000043 46 312 0.0 0.9 0.00 0.00 0.00 50 1015.3
20260502234529 47 288 0.0 1.7 0.00 0.00 0.00 49 1015.4
20260502233029 47 198 0.0 1.7 0.00 0.00 0.00 49 1015.5
20260502231533 47 104 0.0 1.7 0.00 0.00 0.00 48 1015.5
20260502230027 47 246 0.0 2.6 0.00 0.00 0.00 47 1015.5
20260502224526 47 309 0.0 5.2 0.00 0.00 0.00 47 1015.5
20260502223029 47 308 0.0 5.2 0.00 0.00 0.00 48 1015.5
20260502221524 47 315 1.7 3.5 0.00 0.00 0.00 48 1015.6
20260502220024 48 89 0.0 2.6 0.00 0.00 0.00 46 1015.6
20260502214523 47 305 0.0 4.3 0.00 0.00 0.00 48 1015.6
20260502213022 47 354 1.7 3.5 0.00 0.00 0.00 46 1015.6
20260502211529 47 276 0.9 2.6 0.00 0.00 0.00 47 1015.7
20260502210019 48 281 0.9 4.3 0.00 0.00 0.00 47 1015.7
20260502204521 47 291 0.9 4.3 0.00 0.00 0.00 47 1015.8
20260502203017 48 232 0.0 2.6 0.00 0.00 0.00 47 1016.0
20260502201515 48 233 0.9 3.5 0.00 0.00 0.00 47 1016.1
20260502200014 48 155 0.9 3.5 0.00 0.00 0.00 47 1016.2
20260502194512 47 311 0.9 2.6 0.00 0.00 0.00 48 1016.3